Location: Gad�tanya
(48.0500°N, 20.8500°E)
Time: 10:18:05
(UTC+00:00)

NOSS 3-4 (A) - Pass Details

Date: 05 July 2020
Orbit: 892 x 1320 km, 63.4° (Epoch: 12 July)

Event Time Altitude Azimuth Distance (km) Brightness Sun altitude
Rises 22:06:48 0° 316° (NW) 3,837 7.5 -18.9°
Reaches altitude 10° 22:09:24 10° 312° (NW) 2,940 6.7 -18.9°
Maximum altitude 22:16:09 51° 239° (WSW) 1,445 4.2 -19.1°
Enters shadow 22:19:47 29° 181° (S) 2,044 4.6 -19.1°
